Regional Weather Roundup
Issued by NWS Upton, NY

Current Version | Previous Version | Graphics & Text | Print | Product List | Glossary Off
Versions: 1 2 3 4 5 6 7 8 9 10 11 12 13 14 15 16 17 18 19 20 21 22 23 24 25 26 27 28 29 30 31 32 33 34 35 36 37 38 39 40 41 42 43 44 45 46 47 48 49 50

461
ASUS41 KOKX 251605
RWROKX

REGIONAL WEATHER ROUNDUP
NATIONAL WEATHER SERVICE NEW YORK NY
1200 PM EDT MON JUL 25 2016

NOTE: "FAIR" INDICATES FEW OR NO CLOUDS BELOW 12,000 FEET WITH NO
SIGNIFICANT WEATHER AND/OR OBSTRUCTIONS TO VISIBILITY.

NYZ071-072-176-178-NJZ106-104-251700-
NEW YORK CITY METRO AREA

CITY           SKY/WX    TMP DP  RH WIND       PRES   REMARKS
Central Park   SUNNY     88  72  58 VRB3      29.93F HX  94
LaGuardia APRT MOSUNNY   86  72  62 SW12G17   29.90F HX  92
Kennedy INTL   PTSUNNY   82  71  69 S16       29.93F
Newark/Liberty PTSUNNY   88  71  57 SW9       29.90F HX  94
BRNX BOT. GARD   N/A     84  72  65 SE6       29.91F
Wall St Helipt SUNNY     82  73  74 SW7       29.92F
Teterboro      SUNNY     87  71  58 S12       29.89F HX  93
$$

NYZ177-179-078>081-251700-
LONG ISLAND NEW YORK

CITY           SKY/WX    TMP DP  RH WIND       PRES   REMARKS
FARMINGDALE    MOSUNNY   82  70  66 SW13      29.93F
ISLIP          MOSUNNY   84  69  60 S15G23    29.92F
SHIRLEY        MOSUNNY   83  68  60 SW12G21   29.93F
RIVERHEAD      NOT AVBL
WESTHAMPTON    MOSUNNY   82  66  58 SW13      29.95S
SOUTHAMPTON      N/A     79  68  69 SW9       29.90R
BRIDGEHAMPTON    N/A     88  66  48 S2        29.92F HX  90
EAST HAMPTON   FAIR      85  64  48 SW14      29.92F
MONTAUK POINT    N/A     80  69  69 VRB6      29.94F
$$

NYZ052-065-067-251700-
HUDSON VALLEY

CITY           SKY/WX    TMP DP  RH WIND       PRES   REMARKS
WHITE PLAINS   MOSUNNY   83  73  72 S9        29.92F
NEWBURGH       MOSUNNY   90  70  51 W7        29.91F HX  95
MONTGOMERY     MOSUNNY   92  71  50 VRB6      29.89F HX  98
POUGHKEEPSIE   MOSUNNY   92  68  45 W9        29.87F HX  96
ALBANY         PTSUNNY   85  64  49 W3        29.88F
$$

NJZ001-105-106-008-010-013-015-019>022-104-251700-
NEW JERSEY

CITY           SKY/WX    TMP DP  RH WIND       PRES   REMARKS
NEWARK/LIBERTY PTSUNNY   88  71  57 SW9       29.90F HX  94
TETERBORO      SUNNY     87  71  58 S12       29.89F HX  93
CALDWELL       SUNNY     87  71  58 VRB5      29.91F HX  93
MORRISTOWN     MOSUNNY   90  72  55 W6        29.92F HX  96
SOMERVILLE     MOSUNNY   88  73  61 CALM      29.90F HX  95
SUSSEX         CLOUDY    88  70  55 VRB5      29.91F HX  93
ANDOVER          N/A     87  68  52 VRB3      29.93F HX  90
TRENTON        SUNNY     86  75  69 SW7       29.93F HX  95
MILLVILLE      MOSUNNY   90  75  61 VRB6      29.95S HX 100
ATLANTIC CITY  SUNNY     88  76  67 MISG      29.94F HX  99
WRIGHTSTOWN    SUNNY     86  75  70 VRB7      29.91F HX  95
TOMS RIVER     SUNNY     89  76  65 W9        29.94F HX 100
BELMAR         SUNNY     84  76  76 SW12      29.94F HX  93
$$

PAZ047>061-062-071-251700-
EASTERN PENNSYLVANIA

CITY           SKY/WX    TMP DP  RH WIND       PRES   REMARKS
PHILADELPHIA   MOSUNNY   88  75  65 VRB7      29.93F HX  97
ALLENTOWN      SUNNY     92  70  48 SW9       29.93F HX  97
SCRANTON       PTSUNNY   88  69  53 SW9       29.93F HX  92
$$

CTZ002-004>006-009-010-012-RIZ004-006-007-MAZ004-011-015-251700-
SOUTHERN NEW ENGLAND
 IN CT

CITY           SKY/WX    TMP DP  RH WIND       PRES   REMARKS
BRADLEY INTL   PTSUNNY   93  65  39 SW15G23   29.87F HX  95
HARTFORD       SUNNY     92  66  42 S13G20    29.89F HX  94
DANBURY        SUNNY     87  69  54 VRB5      29.92F HX  91
WTRBRY/OXFORD  MOSUNNY   84  66  54 SW6       29.95F
BRIDGEPORT     SUNNY     84  71  65 SW10      29.91F
MERIDEN        MOSUNNY   89  68  49 S13       29.90F HX  93
NEW HAVEN      MOSUNNY   81  71  71 SW9       29.92F
CHESTER        FAIR      84  70  61 SW12      29.93F
GROTON         SUNNY     85  69  58 SW13      29.92F
WILLIMANTIC    NOT AVBL

 IN RI

CITY           SKY/WX    TMP DP  RH WIND       PRES   REMARKS
PROVIDENCE     PTSUNNY   90  68  48 SW13      29.91S HX  94
BLOCK ISLAND     N/A     79  70  74 SW12      29.95S
WESTERLY       CLOUDY    86  67  52 SW9       29.94F

 IN MA

CITY           SKY/WX    TMP DP  RH WIND       PRES   REMARKS
BOSTON         PTSUNNY   79  65  62 E12       29.90F
WORCESTER      MOSUNNY   87  65  47 W17       29.93F
WESTFIELD      SUNNY     93  67  42 S12G21    29.87F HX  96
PROVINCETOWN   SUNNY     84  71  65 S14       29.92F
NANTUCKET      CLOUDY    76  71  85 S15       29.95F
$$

ANZ330-335-338-340-345-350-353-355-251700-
COASTAL MARINE OBSERVATIONS


STATION/POSITION TIME  SKY/WX   TEMP    WIND        PRES    VSBY  WAVE
                                AIR SEA DIR/SP/G                  HT/PER
                 (UTC)          (F)     (DEG/KT/KT) (MB)    (MI)  (FT/S)
NY HARB ENTRANCE 1450            75 74  210/ 14/ 17 1013.5          3/ 4
20S FIRE ISLAND  1450            74 72  210/ 17/ 21 1012.9          3/ 5
GREAT SOUTH BAY  1500            76 81  210/ 12/ 16   N/A
23 SSW MONTAUK P 1450            75 72  200/  4/  4 1014.1          2/ 5
15 E BARNEGAT LI 1522               75                N/A           2/ 5
HUDSON CANYON    1450            75 77              1014.7          3/ 5
KINGS POINT      1500            77 74              1013.3
EXECUTION ROCKS  1500            80     190/ 10/ 12   N/A
CENTRAL LI SOUND 1515            77 74  250/  8/ 10   N/A           1
EASTERN LI SOUND 1500            78 69  250/  2/  4   N/A
ROBBINS REEF     1500            75     160/ 15/ 17 1012.9
$$


>>>>>>>>>>>>>>>>>>>>>>>>>>>> KEY <<<<<<<<<<<<<<<<<<<<<<<<<<<
>                                                          <
>     SKY/WX - SKY CONDITION/PRESENT WEATHER               <
>     TMP    - TEMPERATURE IN FAHRENHEIT                   <
>     DP     - DEWPOINT IN FAHRENHEIT                      <
>     RH     - RELATIVE HUMIDITY IN PERCENT                <
>     WIND   - DIRECTION AND SPEED IN MPH                  <
>     PRES   - MEAN SEA LEVEL PRESSURE IN INCHES OF HG     <
>     WCI    - WIND CHILL INDEX                            <
>     VSB    - VISIBILITY IN MILES                         <
>     HX     - HEAT INDEX                                  <
>     TC     - TEMPERATURE IN CELSIUS                      <
>     VRB    - VARIABLE WIND DIRECTION                     <
>                                                          <
>>>>>>>>>>>>>>>>>>>>>>>>>>>> KEY <<<<<<<<<<<<<<<<<<<<<<<<<<<






USA.gov is the U.S. government's official web portal to all federal, state and local government web resources and services.